Simultaneous Nadir Overpasses (SNOs) Predictions

Prediction of SNOs between METOP-B and NOAA-19 Satellite Orbit:

Table of predicted SNOs for the next 14.0 days since TLE Epoch: 7/13/2024
Index Date (METOP-B) Time (METOP-B) Lat,Lon (METOP-B) SZA (METOP-B ) Date (NOAA-19) Time (NOAA-19) Lat,Lon (NOAA-19) SZA (NOAA-19 ) Distance(km) Time Diff (sec)
1 07/13/2024 04:09:38 45.04, 86.55 35.25 07/13/2024 04:08:45 45.02, 86.63 35.32 6.94 53
2 07/13/2024 05:00:22 -45.05,-106.13 144.75 07/13/2024 04:59:41 -45.05,-106.09 144.67 3.32 41
3 07/13/2024 05:49:56 48.73, 62.69 36.58 07/13/2024 05:49:38 48.74, 62.70 36.62 1.09 18
4 07/13/2024 06:39:51 -51.53,-128.74 142.22 07/13/2024 06:39:45 -51.55,-128.73 142.21 1.83 6
5 07/13/2024 07:29:18 55.60, 40.68 39.81 07/13/2024 07:29:35 55.61, 40.69 39.78 1.22 17
6 07/13/2024 08:19:24 -57.73,-150.76 139.02 07/13/2024 08:19:53 -57.74,-150.73 139.06 2.60 29
7 07/13/2024 09:09:10 60.70, 18.57 42.76 07/13/2024 09:10:02 60.71, 18.60 42.70 2.37 52
8 07/13/2024 09:59:41 -61.37,-173.60 136.82 07/13/2024 10:00:46 -61.36,-173.62 136.90 1.81 65
9 07/25/2024 01:20:32 64.65, -78.54 84.26 07/25/2024 01:19:17 64.53, -79.25 83.97 36.19 75
10 07/25/2024 02:06:29 -48.68, 98.66 82.01 07/25/2024 02:05:26 -48.61, 98.28 82.29 28.74 63
11 07/25/2024 03:21:10 45.00, 98.56 37.08 07/25/2024 03:20:38 44.91, 98.92 36.89 30.67 32
12 07/25/2024 04:11:54 -45.01, -94.13 142.91 07/25/2024 04:11:35 -44.96, -93.80 143.09 26.33 19
13 07/25/2024 05:02:28 45.22, 73.30 37.17 07/25/2024 05:02:31 45.19, 73.54 37.00 19.56 3
14 07/25/2024 05:52:58 -46.04,-119.07 142.53 07/25/2024 05:53:15 -45.98,-118.88 142.71 16.18 17
15 07/25/2024 06:43:14 47.29, 48.77 37.96 07/25/2024 06:43:53 47.25, 48.89 37.78 10.68 39
16 07/25/2024 07:33:45 -48.04,-143.61 141.73 07/25/2024 07:34:37 -48.02,-143.51 141.91 7.36 52



Historial Predications of SNOs between METOP-B and NOAA-19
